Waarnemingen

Advertentie
Mijn weer
Baltasound, Groot Brittannië (3002): temperatuur & dauwpunt: 09.11.2018 21:00:00 - 15.11.2018 21:00:00 (GMT)Baltasound, Groot Brittannië (3002): temperatuur -20cm: 09.11.2018 21:00:00 - 15.11.2018 21:00:00 (GMT)Baltasound, Groot Brittannië (3002): windsnelheid & windstoten: 09.11.2018 21:00:00 - 15.11.2018 21:00:00 (GMT)Baltasound, Groot Brittannië (3002): windrichting: 09.11.2018 21:00:00 - 15.11.2018 21:00:00 (GMT)Baltasound, Groot Brittannië (3002): luchtdruk: 09.11.2018 21:00:00 - 15.11.2018 21:00:00 (GMT)Baltasound, Groot Brittannië (3002): zicht: 09.11.2018 21:00:00 - 15.11.2018 21:00:00 (GMT)Baltasound, Groot Brittannië (3002): neerslag: 09.11.2018 21:00:00 - 15.11.2018 21:00:00 (GMT)
Datum & Tijd tt [°C] td [°C] tt -20cm [°C] ff [km/u] ff [kn] fx [km/u] fx [kn] dd ppp [hPa] vv [km] rr [mm]
15.11.2018 21:00:00 10,5 8,5 - 42 23 63 34 Z 1008,8 9 0,0
15.11.2018 20:00:00 10,8 8,1 - 46 25 67 36 Z 1008,2 9 0,0
15.11.2018 19:00:00 10,5 8,6 - 50 27 65 35 Z 1007,8 9 0,0
15.11.2018 18:00:00 10,2 9,0 - 41 22 59 32 Z 1008,3 8 0,0
15.11.2018 17:00:00 10,4 9,0 - 41 22 59 32 Z 1008,4 8 0,0
15.11.2018 16:00:00 10,5 9,5 - 35 19 50 27 Z 1008,5 8 0,0
15.11.2018 15:00:00 10,9 9,7 - 39 21 52 28 ZZO 1009,2 11 0,0
15.11.2018 14:00:00 11,0 10,1 - 37 20 52 28 Z 1009,9 9 0,0
15.11.2018 13:00:00 11,0 10,2 - 31 17 - - Z 1010,4 9 0,0
15.11.2018 12:00:00 11,1 10,3 - 26 14 - - Z 1010,8 9 0,0
15.11.2018 11:00:00 11,2 10,3 - 26 14 - - Z 1010,9 9 0,0
15.11.2018 10:00:00 11,0 10,2 - 26 14 - - Z 1010,6 9 0,0
15.11.2018 09:00:00 11,0 10,0 8,5 15 8 - - Z 1010,4 12 0,0
15.11.2018 08:00:00 10,9 9,4 - 22 12 - - ZZW 1010,2 21 0,0
15.11.2018 07:00:00 11,2 9,9 - 26 14 - - ZW 1009,4 13 0,0
15.11.2018 06:00:00 11,8 10,4 - 29 16 - - ZW 1008,9 14 0,0
15.11.2018 05:00:00 11,7 10,3 - 22 12 - - ZZW 1008,5 16 0,0
15.11.2018 04:00:00 12,3 10,4 - 29 16 48 26 ZZW 1007,4 21 0,0
15.11.2018 03:00:00 12,3 10,7 - 31 17 - - ZZW 1007,3 16 0,0
15.11.2018 02:00:00 11,8 10,6 - 31 17 - - ZZW 1006,9 17 0,0
15.11.2018 01:00:00 11,4 10,5 - 29 16 - - Z 1006,3 15 0,0
15.11.2018 00:00:00 11,4 10,6 - 24 13 - - Z 1006,3 13 0,0
14.11.2018 23:00:00 11,7 10,8 - 24 13 - - ZZW 1006,1 15 0,0
14.11.2018 22:00:00 10,9 10,3 - 21 11 - - Z 1005,8 11 0,0
14.11.2018 21:00:00 10,8 10,4 - 24 13 - - Z 1005,6 12 0,0
14.11.2018 20:00:00 10,4 10,2 - 24 13 - - Z 1005,1 6 0,0
14.11.2018 19:00:00 10,2 9,9 - 22 12 - - Z 1004,9 6 0,0
14.11.2018 18:00:00 10,2 9,9 - 22 12 - - ZZO 1005,0 9 0,2
14.11.2018 17:00:00 10,2 9,7 - 22 12 - - ZZO 1005,4 6 0,0
14.11.2018 16:00:00 10,3 9,6 - 24 13 - - Z 1005,3 9 0,0
14.11.2018 15:00:00 10,4 9,5 - 21 11 - - Z 1005,7 9 0,0
14.11.2018 14:00:00 10,5 9,6 - 24 13 - - Z 1006,1 9 0,0
14.11.2018 13:00:00 10,7 9,8 - 28 15 - - Z 1005,9 9 0,0
14.11.2018 12:00:00 10,6 9,7 - 24 13 - - Z 1006,3 9 0,0
14.11.2018 11:00:00 10,6 9,7 - 28 15 - - ZZW 1006,7 9 0,0
14.11.2018 10:00:00 10,4 9,4 - 28 15 - - Z 1006,2 10 0,0
14.11.2018 09:00:00 10,2 9,3 8,2 29 16 - - Z 1006,1 11 0,0
14.11.2018 08:00:00 10,1 9,0 - 28 15 - - Z 1006,0 12 0,0
14.11.2018 07:00:00 9,9 9,0 - 26 14 - - Z 1006,0 13 0,2
14.11.2018 06:00:00 9,4 8,7 - 28 15 46 25 Z 1006,1 5 0,0
14.11.2018 05:00:00 9,6 8,4 - 29 16 - - Z 1006,1 14 0,0
14.11.2018 04:00:00 9,3 8,0 - 31 17 48 26 Z 1006,5 13 0,0
14.11.2018 03:00:00 9,4 8,0 - 34 18 48 26 Z 1007,0 16 0,2
14.11.2018 02:00:00 9,5 7,7 - 31 17 - - Z 1007,8 21 0,0
14.11.2018 01:00:00 9,4 7,8 - 34 18 - - Z 1008,4 22 0,0
14.11.2018 00:00:00 8,9 7,9 - 24 13 - - Z 1008,5 25 0,0
13.11.2018 23:00:00 8,3 7,5 - 21 11 - - Z 1009,0 40 0,0
13.11.2018 22:00:00 7,7 6,9 - 18 10 - - Z 1008,7 50 0,0
13.11.2018 21:00:00 8,3 7,5 - 16 9 - - Z 1009,0 28 0,0
13.11.2018 20:00:00 7,6 6,3 - 16 9 - - Z 1008,7 50 0,0
13.11.2018 19:00:00 7,2 5,7 - 13 7 - - ZZW 1008,4 50 0,0
13.11.2018 18:00:00 7,7 5,9 - 11 6 - - ZW 1007,8 45 0,0
13.11.2018 17:00:00 8,2 5,2 - 15 8 - - WZW 1007,1 50 0,0
13.11.2018 16:00:00 8,1 6,0 - 21 11 - - W 1006,5 50 0,2
13.11.2018 15:00:00 9,0 7,7 - 16 9 - - ZW 1005,4 6 0,0
13.11.2018 14:00:00 9,5 7,5 - 21 11 - - ZW 1004,6 45 0,0
13.11.2018 13:00:00 9,9 8,4 - 16 9 - - ZW 1003,7 35 0,0
13.11.2018 12:00:00 9,6 8,2 - 15 8 - - ZW 1003,3 50 0,0
13.11.2018 11:00:00 8,9 8,1 - 13 7 - - ZW 1002,6 35 0,0
13.11.2018 10:00:00 8,2 7,5 - 21 11 - - WZW 1001,9 45 0,0
13.11.2018 09:00:00 8,1 7,5 8,2 11 6 - - ZW 1001,1 45 0,4
13.11.2018 08:00:00 9,0 8,3 - 15 8 - - ZZW 1000,5 18 0,0
13.11.2018 07:00:00 9,2 8,4 - 16 9 - - ZZW 999,9 19 0,0
13.11.2018 06:00:00 9,5 8,8 - 22 12 - - Z 999,4 14 0,0
13.11.2018 05:00:00 9,2 8,5 - 21 11 - - Z 999,2 15 0,2
13.11.2018 04:00:00 9,4 8,5 - 24 13 - - Z 999,0 13 0,0
13.11.2018 03:00:00 9,6 8,7 - 22 12 - - Z 999,2 11 0,0
13.11.2018 02:00:00 9,9 9,0 - 24 13 - - ZZO 999,4 9 0,0
13.11.2018 01:00:00 9,9 9,0 - 24 13 - - Z 999,6 9 0,0
13.11.2018 00:00:00 9,9 9,1 - 22 12 - - Z 999,6 8 0,0
12.11.2018 23:00:00 9,8 8,9 - 21 11 - - ZZO 999,8 9 0,2
12.11.2018 22:00:00 9,8 8,5 - 18 10 - - Z 1000,1 11 0,0
12.11.2018 21:00:00 9,8 8,5 - 22 12 - - Z 1000,0 11 0,0
12.11.2018 20:00:00 9,9 8,0 - 24 13 - - Z 999,9 16 0,0
12.11.2018 19:00:00 9,8 8,3 - 24 13 - - Z 1000,0 13 0,0
12.11.2018 18:00:00 9,8 8,1 - 22 12 - - Z 999,8 12 0,0
12.11.2018 17:00:00 9,9 8,2 - 22 12 - - Z 999,4 13 0,0
12.11.2018 16:00:00 9,7 8,5 - 24 13 - - Z 999,2 11 0,0
12.11.2018 15:00:00 9,9 8,6 - 22 12 - - Z 999,2 11 0,0
12.11.2018 14:00:00 10,0 8,5 - 26 14 - - Z 999,0 12 0,0
12.11.2018 13:00:00 10,2 8,5 - 29 16 - - Z 999,1 16 0,0
12.11.2018 12:00:00 10,3 8,7 - 26 14 - - Z 999,0 14 0,0
12.11.2018 11:00:00 10,3 8,7 - 24 13 - - ZZO 998,9 14 0,0
12.11.2018 10:00:00 9,6 8,3 - 26 14 - - Z 998,7 17 0,0
12.11.2018 09:00:00 9,1 8,0 8,2 22 12 - - ZZO 998,6 16 0,0
12.11.2018 08:00:00 8,6 6,6 - 21 11 - - Z 998,6 26 0,0
12.11.2018 07:00:00 8,8 7,1 - 26 14 - - Z 997,9 21 0,0
12.11.2018 06:00:00 8,6 6,4 - 26 14 - - ZZO 997,3 28 0,0
12.11.2018 05:00:00 9,3 8,0 - 28 15 - - ZZO 997,1 19 0,0
12.11.2018 04:00:00 9,0 6,7 - 22 12 - - Z 996,9 24 0,0
12.11.2018 03:00:00 9,2 7,6 - 21 11 - - ZZO 996,8 18 0,0
12.11.2018 02:00:00 8,8 7,5 - 18 10 - - Z 996,9 16 0,0
12.11.2018 01:00:00 9,1 7,9 - 21 11 - - Z 996,8 19 0,0
12.11.2018 00:00:00 8,5 7,5 - 15 8 - - Z 996,5 19 0,0
11.11.2018 23:00:00 8,6 7,5 - 16 9 - - ZZO 996,2 16 0,0
11.11.2018 22:00:00 9,1 8,2 - 18 10 - - ZZO 996,0 17 0,0
11.11.2018 21:00:00 7,6 6,9 - 15 8 - - Z 995,7 12 0,0
11.11.2018 20:00:00 9,3 8,9 - 18 10 - - Z 995,2 15 0,0
11.11.2018 19:00:00 7,1 6,8 - 13 7 - - Z 994,9 14 0,0
11.11.2018 18:00:00 7,1 6,5 - 13 7 - - Z 994,3 12 0,0
11.11.2018 17:00:00 9,3 8,8 - 18 10 - - ZZO 993,8 10 0,0
11.11.2018 16:00:00 9,0 8,3 - 26 14 - - ZZO 993,2 15 0,2
11.11.2018 15:00:00 9,9 9,5 - 21 11 - - ZZO 993,1 9 0,0
11.11.2018 14:00:00 9,7 9,2 - 22 12 - - ZZO 993,2 9 1,0
11.11.2018 13:00:00 10,1 9,3 - 29 16 - - ZO 993,2 10 0,0
11.11.2018 12:00:00 10,1 9,2 - 29 16 - - ZO 993,4 11 0,0
11.11.2018 11:00:00 10,1 9,2 - 29 16 - - ZO 993,4 9 0,0
11.11.2018 10:00:00 10,2 9,5 - 31 17 - - ZO 993,4 8 0,0
11.11.2018 09:00:00 10,2 9,3 8,2 31 17 - - ZO 993,3 9 0,0
11.11.2018 08:00:00 9,9 8,9 - 31 17 - - ZO 993,0 2,9 0,0
11.11.2018 07:00:00 9,9 8,6 - 34 18 - - ZO 992,7 10 0,0
11.11.2018 06:00:00 9,7 8,3 - 35 19 50 27 ZO 992,8 10 0,0
11.11.2018 05:00:00 9,4 7,8 - 37 20 50 27 ZO 992,9 11 0,0
11.11.2018 04:00:00 9,6 8,0 - 29 16 - - ZO 993,0 10 0,0
11.11.2018 03:00:00 9,5 8,0 - 28 15 - - ZO 993,3 11 0,0
11.11.2018 02:00:00 9,7 8,3 - 29 16 - - ZZO 993,5 13 0,0
11.11.2018 01:00:00 9,5 8,2 - 29 16 - - ZZO 993,5 12 0,0
11.11.2018 00:00:00 9,5 8,5 - 24 13 - - ZZO 993,5 9 0,0
10.11.2018 23:00:00 9,5 8,5 - 28 15 - - ZZO 993,4 9 0,0
10.11.2018 22:00:00 9,3 8,0 - 29 16 - - ZZO 993,0 9 0,0
10.11.2018 21:00:00 8,8 7,9 - 21 11 - - Z 992,5 7 0,0
10.11.2018 20:00:00 7,8 6,6 - 16 9 - - Z 991,6 7 0,0
10.11.2018 19:00:00 8,5 7,4 - 21 11 - - Z 990,7 7 0,0
10.11.2018 18:00:00 8,9 7,9 - 21 11 - - Z 989,2 7 0,0
10.11.2018 17:00:00 9,7 8,6 - 28 15 - - Z 987,9 7 0,0
10.11.2018 16:00:00 10,0 9,0 - 29 16 - - Z 986,6 8 0,0
10.11.2018 15:00:00 10,1 9,2 - 26 14 - - Z 985,8 6 0,0
10.11.2018 14:00:00 9,8 9,1 - 29 16 68 37 ZZO 985,6 7 0,8
10.11.2018 13:00:00 9,8 9,1 - 50 27 74 40 ZO 985,6 3,1 1,6
10.11.2018 12:00:00 9,7 9,0 - 55 30 83 45 ZO 986,4 4,7 2,0
10.11.2018 11:00:00 9,8 9,1 - 55 30 80 43 ZO 987,2 3,5 2,4
10.11.2018 10:00:00 10,0 9,0 - 59 32 78 42 ZO 988,2 5 1,2
10.11.2018 09:00:00 9,9 9,1 8,2 55 30 78 42 ZO 988,7 3,2 0,8
10.11.2018 08:00:00 10,0 9,1 - 55 30 74 40 ZO 989,3 3,0 0,2
10.11.2018 07:00:00 10,5 8,7 - 54 29 74 40 ZO 989,9 8 0,0
10.11.2018 06:00:00 10,3 8,4 - 55 30 80 43 ZO 990,5 8 0,0
10.11.2018 05:00:00 10,3 8,1 - 57 31 80 43 ZO 991,4 9 0,0
10.11.2018 04:00:00 10,1 8,2 - 55 30 76 41 ZO 992,5 9 0,0
10.11.2018 03:00:00 9,9 7,8 - 57 31 80 43 ZO 993,4 9 0,0
10.11.2018 02:00:00 9,7 7,5 - 59 32 85 46 ZO 994,9 10 0,0
10.11.2018 01:00:00 9,8 7,5 - 54 29 76 41 ZO 996,3 9 0,0
10.11.2018 00:00:00 9,6 7,3 - 54 29 76 41 ZO 997,7 10 0,0
09.11.2018 23:00:00 9,4 6,3 - 52 28 78 42 ZO 998,9 11 0,0
09.11.2018 22:00:00 9,3 6,3 - 59 32 80 43 ZO 999,8 12 0,0
09.11.2018 21:00:00 9,1 6,3 - 55 30 76 41 ZO 1000,8 11 0,0

tt = temperatuur
td = dauwpunt
tt -20cm = temperatuur -20cm
ff = windsnelheid
fx = windstoten
dd = windrichting
ppp = luchtdruk
vv = zicht
rr = neerslag

Weerstations in de omgeving